{"data":{"norad_id":68859,"intl_designator":"2026-094W","name":"STARLINK-37488","alt_names":[],"object_type":"PAYLOAD","status":"ACTIVE","operator":null,"country":"US","launch_date":"2026-04-26","launch_site_code":"AFWTR","launch_vehicle":null,"mission":null,"orbit_class":"UNKNOWN","rcs_meters":null,"size_class":null,"mass_kg":null,"dimensions":null,"purposes":["comms"],"wikipedia_slug":null,"has_3d_model":false,"image_url":null,"decayed_at":null,"tle_current":{"epoch":"2026-05-25T04:00:03.998880Z","epoch_age_seconds":56776,"freshness":"FRESH","line1":"1 68859U 26094W   26145.16671295 -.00009312  00000+0 -16977-3 0  9991","line2":"2 68859  97.2850 159.9070 0000778 101.5380  75.1166 15.49187617  5673","mean_motion":15.49187617,"eccentricity":7.78e-5,"inclination_deg":97.285,"raan_deg":159.907,"arg_perigee_deg":101.538,"mean_anomaly_deg":75.1166,"bstar":-0.00016977,"rev_number":567,"period_min":92.951943599224,"perigee_km":418.57248851715,"apogee_km":419.63013879875,"semimajor_km":6797.238313658,"source":"CELESTRAK","updated_at":"2026-05-25T13:38:22.064855Z"}}}